This is the latest recevied weather packets stored in our database for station/object 9W2CHF-4. If no packets are shown the sender has not sent any weather packets the latest 10 day(s).
| Time | Temp. | Humidity | Pressure | Rain* | Wind** | Luminosity | Snow |
|---|---|---|---|---|---|---|---|
| 1777946913 | 32.22° C | 54% | 1011.3 hPa | - | - | - | - |
| 1777946012 | 31.67° C | 55% | 1011.3 hPa | - | - | - | - |
| 1777945112 | 32.22° C | 60% | 1011.3 hPa | - | - | - | - |
| 1777944212 | 32.22° C | 65% | 1011.2 hPa | - | - | - | - |
| 1777943312 | 32.22° C | 75% | 1011 hPa | - | - | - | - |
| 1777942412 | 32.22° C | 83% | 1010.9 hPa | - | - | - | - |
| 1777941512 | 31.67° C | 83% | 1010.7 hPa | - | - | - | - |
| 1777940612 | 31.67° C | 83% | 1010.5 hPa | - | - | - | - |
| 1777939712 | 31.67° C | 83% | 1010.4 hPa | - | - | - | - |
| 1777938812 | 31.67° C | 84% | 1010.3 hPa | - | - | - | - |
| 1777937912 | 31.67° C | 83% | 1010.2 hPa | - | - | - | - |
| 1777937012 | 31.67° C | 83% | 1010.1 hPa | - | - | - | - |
| 1777936112 | 31.67° C | 83% | 1010 hPa | - | - | - | - |
| 1777935212 | 31.67° C | 84% | 1010.1 hPa | - | - | - | - |
| 1777934312 | 31.67° C | 82% | 1010 hPa | - | - | - | - |
| 1777933412 | 31.67° C | 81% | 1009.9 hPa | - | - | - | - |
| 1777932512 | 31.67° C | 82% | 1009.5 hPa | - | - | - | - |
| 1777931612 | 31.67° C | 82% | 1009.4 hPa | - | - | - | - |
| 1777930711 | 31.67° C | 81% | 1009.5 hPa | - | - | - | - |
| 1777929811 | 31.67° C | 81% | 1009.5 hPa | - | - | - | - |
| 1777928910 | 31.67° C | 81% | 1009.5 hPa | - | - | - | - |
| 1777928015 | 31.67° C | 81% | 1009.3 hPa | - | - | - | - |
| 1777927114 | 31.67° C | 82% | 1009.3 hPa | - | - | - | - |
| 1777926214 | 31.67° C | 81% | 1009.4 hPa | - | - | - | - |
| 1777925314 | 31.67° C | 80% | 1009.4 hPa | - | - | - | - |
* Rain since midnight (hover to see other rain measurements)
** Current wind speed in m/s (hover to see current wind gust speed)